N4DWK Weather Reports


Display with metric or nautical units.
time (UTC)temp
F
wind
direction
speed
MPH
gust
MPH
rain 1hr
in
rain 24hr
in
rain mn
in
humidity
%
barometer
mb
20260901053503 78 157 0.0 0.0 0.00 0.00 0.00 89 1018.1
20260901053003 78 157 0.0 0.0 0.00 0.00 0.00 88 1018.1
20260901052515 78 157 0.0 0.0 0.00 0.00 0.00 88 1018.2
20260901052003 78 157 0.0 0.0 0.00 0.00 0.00 88 1018.2
20260901051503 78 157 0.0 0.0 0.00 0.00 0.00 88 1018.2
20260901051002 78 157 0.0 0.0 0.00 0.00 0.00 88 1018.2
20260901050502 78 157 0.0 0.0 0.00 0.00 0.00 88 1018.2
20260901050003 78 157 0.0 0.0 0.00 0.00 0.00 88 1018.2
20260901045503 78 157 0.0 2.0 0.00 0.00 0.00 87 1018.3
20260901045004 78 157 0.0 2.0 0.00 0.00 0.00 87 1018.3
20260901044505 78 157 0.0 0.0 0.00 0.00 0.00 87 1018.3
20260901044003 78 157 0.0 0.0 0.00 0.00 0.00 87 1018.4
20260901043504 78 157 0.0 0.0 0.00 0.00 0.00 86 1018.3
20260901043002 79 157 0.0 0.0 0.00 0.00 0.00 86 1018.3
20260901042502 79 157 0.0 0.0 0.00 0.00 0.00 86 1018.3
20260901042002 79 157 0.0 0.0 0.00 0.00 0.00 85 1018.3
20260901041503 79 157 0.0 0.0 0.00 0.00 0.00 85 1018.3
20260901041004 79 157 0.0 0.0 0.00 0.00 0.00 85 1018.2
20260901040503 79 157 0.0 0.0 0.00 0.00 0.00 84 1018.2
20260901040003 79 157 0.0 1.0 0.00 0.00 0.00 84 1018.2
20260901035504 79 157 0.0 2.0 0.00 0.00 0.00 84 1018.2
20260901035003 79 157 1.0 2.0 0.00 0.00 0.00 84 1018.2
20260901034502 80 157 0.0 3.0 0.00 0.00 0.00 84 1018.2
20260901034002 80 157 0.0 3.0 0.00 0.00 0.00 83 1018.2
20260901033503 80 136 0.0 1.0 0.00 0.00 0.00 83 1018.2
20260901033003 80 137 0.0 0.0 0.00 0.00 0.00 82 1018.1
20260901031007 80 137 0.0 0.0 0.00 0.00 0.00 82 1018.1
20260901030507 81 137 0.0 0.0 0.00 0.00 0.00 82 1018.2
20260901030007 81 131 0.0 0.0 0.00 0.00 0.00 82 1018.2
20260901025508 81 131 0.0 1.0 0.00 0.00 0.00 81 1018.2
20260901025007 81 131 0.0 1.0 0.00 0.00 0.00 81 1018.1
20260901024506 81 131 0.0 3.0 0.00 0.00 0.00 81 1018.1
20260901024008 81 131 0.0 3.0 0.00 0.00 0.00 81 1018.0
20260901023506 82 128 0.0 0.0 0.00 0.00 0.00 81 1018.0
20260901023007 82 128 0.0 0.0 0.00 0.00 0.00 81 1018.1
20260901022507 82 128 0.0 0.0 0.00 0.00 0.00 81 1018.2
20260901022007 82 128 0.0 2.0 0.00 0.00 0.00 80 1018.2
20260901021506 82 128 0.0 3.0 0.00 0.00 0.00 80 1018.2
20260901021006 82 128 1.0 5.0 0.00 0.00 0.00 80 1018.3
20260901020506 82 128 2.0 5.0 0.00 0.00 0.00 80 1018.3
20260901020008 82 136 2.0 3.0 0.00 0.00 0.00 79 1018.3
20260901015507 83 132 1.0 3.0 0.00 0.00 0.00 79 1018.3
20260901015006 83 132 1.0 3.0 0.00 0.00 0.00 78 1018.3
20260901014507 83 132 2.0 3.0 0.00 0.00 0.00 78 1018.3
20260901014007 83 133 1.0 3.0 0.00 0.00 0.00 78 1018.3
20260901013507 83 126 0.0 3.0 0.00 0.00 0.00 77 1018.2
20260901013007 83 138 1.0 3.0 0.00 0.00 0.00 76 1018.1
20260901012507 84 137 2.0 3.0 0.00 0.00 0.00 76 1018.1
20260901012009 84 142 1.0 6.0 0.00 0.00 0.00 75 1018.0
20260901011507 84 137 3.0 6.0 0.00 0.00 0.00 75 1018.0
20260901011006 84 141 3.0 6.0 0.00 0.00 0.00 74 1018.0
20260901010506 84 143 2.0 6.0 0.00 0.00 0.00 74 1018.0
20260901010007 84 146 2.0 6.0 0.00 0.00 0.00 73 1018.0
20260901005507 84 117 2.0 5.0 0.00 0.00 0.00 73 1017.9
20260901005007 84 133 2.0 3.0 0.00 0.00 0.00 73 1018.0
20260901004506 84 139 2.0 3.0 0.00 0.00 0.00 73 1018.0
20260901004007 84 76 0.0 3.0 0.00 0.00 0.00 73 1018.0
20260901003506 84 141 1.0 3.0 0.00 0.00 0.00 73 1018.0
20260901003008 84 30 1.0 3.0 0.00 0.00 0.00 73 1018.0
20260901002506 85 30 0.0 3.0 0.00 0.00 0.00 73 1017.9
20260901002007 85 65 1.0 3.0 0.00 0.00 0.00 73 1017.9
20260901001507 85 25 0.0 3.0 0.00 0.00 0.00 73 1017.9
20260901001007 85 25 2.0 6.0 0.00 0.00 0.00 73 1017.8
20260901000507 85 45 2.0 6.0 0.00 0.00 0.00 73 1017.7
20260901000006 85 118 1.0 5.0 0.00 0.00 0.00 72 1017.6
20260831235506 85 30 2.0 5.0 0.00 0.00 0.00 72 1017.6
20260831235008 85 36 1.0 3.0 0.00 0.00 0.00 73 1017.5
20260831234506 85 27 1.0 3.0 0.00 0.00 0.00 72 1017.6
20260831234007 85 27 0.0 3.0 0.00 0.00 0.00 72 1017.6
20260831233507 85 30 0.0 3.0 0.00 0.00 0.00 72 1017.6
20260831233007 85 30 0.0 3.0 0.00 0.00 0.00 71 1017.6
20260831232507 86 30 1.0 3.0 0.00 0.00 0.00 71 1017.6
20260831232007 86 30 0.0 2.0 0.00 0.00 0.00 71 1017.6
20260831231507 86 30 0.0 2.0 0.00 0.00 0.00 70 1017.6
20260831231006 87 30 0.0 3.0 0.00 0.00 0.00 69 1017.5
20260831230506 87 28 2.0 5.0 0.00 0.00 0.00 68 1017.5
20260831230006 87 15 2.0 5.0 0.00 0.00 0.00 68 1017.5
20260831225506 87 34 0.0 0.0 0.00 0.00 0.00 68 1017.4
20260831225006 88 37 0.0 0.0 0.00 0.00 0.00 67 1017.5
20260831224508 88 37 0.0 3.0 0.00 0.00 0.00 67 1017.5
20260831224006 88 37 0.0 3.0 0.00 0.00 0.00 65 1017.4
20260831223507 88 37 0.0 3.0 0.00 0.00 0.00 64 1017.4
20260831223007 89 39 1.0 5.0 0.00 0.00 0.00 63 1017.5
20260831222507 89 22 1.0 5.0 0.00 0.00 0.00 63 1017.5
20260831222006 89 11 1.0 6.0 0.00 0.00 0.00 61 1017.5
20260831221507 90 25 2.0 6.0 0.00 0.00 0.00 60 1017.6
20260831221007 90 1 2.0 6.0 0.00 0.00 0.00 60 1017.6
20260831220507 91 20 2.0 6.0 0.00 0.00 0.00 58 1017.5
20260831220007 91 6 1.0 6.0 0.00 0.00 0.00 59 1017.5
20260831215506 91 17 3.0 3.0 0.00 0.00 0.00 59 1017.5
20260831215007 92 17 2.0 6.0 0.00 0.00 0.00 59 1017.4
20260831214506 92 20 2.0 6.0 0.00 0.00 0.00 59 1017.4
20260831214007 92 136 0.0 3.0 0.00 0.00 0.00 59 1017.4
20260831213506 92 19 0.0 6.0 0.00 0.00 0.00 62 1017.4
20260831213007 91 19 2.0 6.0 0.00 0.00 0.00 61 1017.3
20260831212506 91 355 1.0 6.0 0.00 0.00 0.00 61 1017.4
20260831212007 91 40 1.0 5.0 0.00 0.00 0.00 61 1017.4
20260831211506 92 37 1.0 5.0 0.00 0.00 0.00 59 1017.4
20260831211007 92 30 1.0 5.0 0.00 0.00 0.00 61 1017.3
20260831210507 90 37 1.0 6.0 0.00 0.00 0.00 60 1017.3
20260831210006 90 35 2.0 6.0 0.00 0.00 0.00 59 1017.3
20260831205507 91 111 1.0 6.0 0.00 0.00 0.00 61 1017.3
20260831205006 91 7 2.0 6.0 0.00 0.00 0.00 60 1017.3
20260831204507 91 16 1.0 6.0 0.00 0.00 0.00 59 1017.3
20260831204007 92 87 3.0 8.0 0.00 0.00 0.00 57 1017.4
20260831203506 94 119 2.0 8.0 0.00 0.00 0.00 55 1017.4
20260831203007 94 41 3.0 7.0 0.00 0.00 0.00 55 1017.4
20260831202506 94 359 3.0 7.0 0.00 0.00 0.00 56 1017.4
20260831202007 94 13 1.0 3.0 0.00 0.00 0.00 56 1017.4
20260831201506 94 15 1.0 5.0 0.00 0.00 0.00 56 1017.4
20260831201006 95 24 3.0 7.0 0.00 0.00 0.00 56 1017.5
20260831200506 94 19 1.0 7.0 0.00 0.00 0.00 58 1017.5
20260831200006 94 13 1.0 6.0 0.00 0.00 0.00 58 1017.5
20260831195507 94 79 1.0 6.0 0.00 0.00 0.00 58 1017.5
20260831195006 93 15 3.0 8.0 0.00 0.00 0.00 59 1017.5
20260831194507 92 1 2.0 8.0 0.00 0.00 0.00 59 1017.5
20260831194007 93 353 3.0 8.0 0.00 0.00 0.00 57 1017.6
20260831193506 95 49 1.0 5.0 0.00 0.00 0.00 55 1017.6
20260831193007 94 20 3.0 6.0 0.00 0.00 0.00 56 1017.6
20260831192507 95 324 2.0 6.0 0.00 0.00 0.00 58 1017.7
20260831192007 94 224 2.0 6.0 0.00 0.00 0.00 54 1017.7
20260831191506 94 5 3.0 6.0 0.00 0.00 0.00 57 1017.8
20260831191006 95 240 3.0 5.0 0.00 0.00 0.00 53 1017.8
20260831190506 95 355 1.0 3.0 0.00 0.00 0.00 56 1017.9
20260831190006 95 56 1.0 3.0 0.00 0.00 0.00 56 1018.0
20260831185507 95 89 2.0 5.0 0.00 0.00 0.00 57 1018.0
20260831185006 96 42 3.0 5.0 0.00 0.00 0.00 55 1018.1
20260831184506 96 23 3.0 5.0 0.00 0.00 0.00 59 1018.0
20260831184006 95 0 1.0 3.0 0.00 0.00 0.00 58 1018.1
20260831183507 94 311 2.0 6.0 0.00 0.00 0.00 58 1018.2
20260831183006 94 5 2.0 6.0 0.00 0.00 0.00 58 1018.2
20260831182506 94 58 3.0 6.0 0.00 0.00 0.00 58 1018.2
20260831182007 94 100 2.0 6.0 0.00 0.00 0.00 58 1018.2
20260831181506 94 34 2.0 6.0 0.00 0.00 0.00 60 1018.3
20260831181007 93 0 2.0 6.0 0.00 0.00 0.00 59 1018.3
20260831180506 93 351 2.0 3.0 0.00 0.00 0.00 61 1018.4
20260831180007 92 140 0.0 3.0 0.00 0.00 0.00 62 1018.4
20260831175506 91 139 1.0 5.0 0.00 0.00 0.00 63 1018.4
20260831175006 92 5 1.0 5.0 0.00 0.00 0.00 60 1018.4
20260831174507 91 131 1.0 5.0 0.00 0.00 0.00 64 1018.4
20260831174006 91 123 0.0 6.0 0.00 0.00 0.00 60 1018.5
20260831173506 91 103 1.0 6.0 0.00 0.00 0.00 63 1018.5
20260831173007 90 38 2.0 6.0 0.00 0.00 0.00 65 1018.6
20260831172506 90 320 2.0 5.0 0.00 0.00 0.00 65 1018.6
20260831172007 90 356 1.0 5.0 0.00 0.00 0.00 65 1018.7
20260831171506 90 315 1.0 5.0 0.00 0.00 0.00 64 1018.7
20260831171006 89 13 1.0 5.0 0.00 0.00 0.00 64 1018.7
20260831170506 90 8 1.0 5.0 0.00 0.00 0.00 63 1018.6
20260831170006 89 237 2.0 5.0 0.00 0.00 0.00 63 1018.7
20260831165507 89 132 2.0 5.0 0.00 0.00 0.00 65 1018.7
20260831165006 89 33 2.0 3.0 0.00 0.00 0.00 64 1018.7
20260831164506 89 10 1.0 3.0 0.00 0.00 0.00 65 1018.8
20260831164006 88 23 2.0 5.0 0.00 0.00 0.00 67 1019.0
20260831163505 88 25 0.0 6.0 0.00 0.00 0.00 68 1019.0
20260831163007 87 355 2.0 6.0 0.00 0.00 0.00 70 1019.0
20260831162506 87 331 1.0 3.0 0.00 0.00 0.00 70 1019.1
20260831162007 87 45 0.0 2.0 0.00 0.00 0.00 71 1019.2
20260831161506 86 45 0.0 3.0 0.00 0.00 0.00 72 1019.2
20260831161007 86 44 2.0 3.0 0.00 0.00 0.00 72 1019.1
20260831160506 86 75 1.0 3.0 0.00 0.00 0.00 72 1019.1
20260831160006 86 132 2.0 3.0 0.00 0.00 0.00 73 1019.2
20260831155506 86 36 0.0 3.0 0.00 0.00 0.00 73 1019.2
20260831155006 85 9 0.0 0.0 0.00 0.00 0.00 73 1019.2
20260831154506 85 324 0.0 0.0 0.00 0.00 0.00 75 1019.2
20260831154006 85 191 0.0 0.0 0.00 0.00 0.00 74 1019.3
20260831153505 84 191 0.0 1.0 0.00 0.00 0.00 76 1019.3
20260831153006 84 269 0.0 3.0 0.00 0.00 0.00 77 1019.2
20260831152506 84 42 2.0 3.0 0.00 0.00 0.00 77 1019.3
20260831152007 84 44 0.0 3.0 0.00 0.00 0.00 76 1019.3
20260831151506 84 80 0.0 3.0 0.00 0.00 0.00 76 1019.3
20260831151005 83 14 2.0 3.0 0.00 0.00 0.00 78 1019.3
20260831150505 83 39 0.0 1.0 0.00 0.00 0.00 77 1019.3
20260831150006 83 197 0.0 3.0 0.00 0.00 0.00 78 1019.2
20260831145507 83 196 1.0 3.0 0.00 0.00 0.00 78 1019.3
20260831145005 83 40 0.0 3.0 0.00 0.00 0.00 78 1019.3
20260831144506 82 40 2.0 3.0 0.00 0.00 0.00 78 1019.2
20260831144006 82 41 2.0 3.0 0.00 0.00 0.00 79 1019.3
20260831143506 82 4 0.0 3.0 0.00 0.00 0.00 78 1019.3
20260831143006 82 10 2.0 3.0 0.00 0.00 0.00 79 1019.3
20260831142507 82 355 2.0 3.0 0.00 0.00 0.00 79 1019.3
20260831142006 82 5 2.0 5.0 0.00 0.00 0.00 80 1019.3
20260831141506 82 31 3.0 5.0 0.00 0.00 0.00 80 1019.3
20260831141005 82 323 2.0 3.0 0.00 0.00 0.00 80 1019.3
20260831140506 82 343 2.0 5.0 0.00 0.00 0.00 81 1019.3
20260831140007 82 5 1.0 5.0 0.00 0.00 0.00 81 1019.3
20260831135506 81 290 1.0 6.0 0.00 0.00 0.00 81 1019.3
20260831135006 81 5 2.0 6.0 0.00 0.00 0.00 81 1019.3
20260831134507 81 10 3.0 6.0 0.00 0.00 0.00 81 1019.3
20260831134006 81 298 1.0 3.0 0.00 0.00 0.00 81 1019.3
20260831133506 81 313 1.0 6.0 0.00 0.00 0.00 81 1019.2
20260831133006 81 13 3.0 6.0 0.00 0.00 0.00 83 1019.2
20260831132506 80 13 1.0 5.0 0.00 0.00 0.00 83 1019.2
20260831132006 80 199 1.0 3.0 0.00 0.00 0.00 83 1019.2
20260831131506 80 218 2.0 5.0 0.00 0.00 0.00 84 1019.2
20260831130506 79 5 2.0 5.0 0.00 0.00 0.00 86 1019.2
20260831130007 79 339 2.0 3.0 0.00 0.00 0.00 85 1019.3
20260831125505 78 5 0.0 5.0 0.00 0.00 0.00 86 1019.3
20260831125006 78 5 0.0 6.0 0.00 0.00 0.00 87 1019.4
20260831124505 78 10 3.0 6.0 0.00 0.00 0.00 89 1019.3
20260831124005 77 350 1.0 3.0 0.00 0.00 0.00 89 1019.4
20260831123505 76 258 0.0 3.0 0.00 0.00 0.00 89 1019.4
20260831123005 76 222 1.0 3.0 0.00 0.00 0.00 90 1019.3
20260831122505 76 220 1.0 3.0 0.00 0.00 0.00 90 1019.3
20260831122006 75 208 1.0 3.0 0.00 0.00 0.00 90 1019.2
20260831121506 75 223 1.0 3.0 0.00 0.00 0.00 90 1019.2
20260831121006 75 239 2.0 3.0 0.00 0.00 0.00 91 1019.1
20260831120505 74 228 0.0 3.0 0.00 0.00 0.00 91 1019.1
20260831120006 74 228 1.0 3.0 0.00 0.00 0.00 91 1019.1
20260831115506 74 195 0.0 3.0 0.00 0.00 0.00 91 1019.0
20260831115006 74 194 0.0 3.0 0.00 0.00 0.00 92 1019.0
20260831114505 74 194 1.0 3.0 0.00 0.00 0.00 92 1019.0
20260831114005 74 194 0.0 3.0 0.00 0.00 0.00 92 1019.0
20260831113505 74 194 0.0 3.0 0.00 0.00 0.00 92 1019.0
20260831113006 74 194 0.0 0.0 0.00 0.00 0.00 92 1019.0
20260831112505 73 194 0.0 0.0 0.00 0.00 0.00 92 1018.8
20260831112005 73 194 0.0 0.0 0.00 0.00 0.00 92 1018.7
20260831111505 73 194 0.0 0.0 0.00 0.00 0.00 92 1018.7
20260831111006 73 194 0.0 0.0 0.00 0.00 0.00 92 1018.7
20260831110505 73 194 0.0 0.0 0.00 0.00 0.00 91 1018.7
20260831110005 73 194 0.0 0.0 0.00 0.00 0.00 91 1018.7
20260831105505 74 194 0.0 0.0 0.00 0.00 0.00 91 1018.7
20260831105006 74 194 0.0 0.0 0.00 0.00 0.00 91 1018.7
20260831104506 74 194 0.0 0.0 0.00 0.00 0.00 91 1018.7
20260831104006 74 194 0.0 0.0 0.00 0.00 0.00 90 1018.7
20260831103505 74 194 0.0 0.0 0.00 0.00 0.00 90 1018.6
20260831103006 74 194 0.0 0.0 0.00 0.00 0.00 90 1018.6
20260831102506 74 194 0.0 0.0 0.00 0.00 0.00 90 1018.6
20260831102005 74 194 0.0 0.0 0.00 0.00 0.00 90 1018.5
20260831101505 74 194 0.0 0.0 0.00 0.00 0.00 90 1018.4
20260831101006 74 194 0.0 0.0 0.00 0.00 0.00 89 1018.3
20260831100505 75 194 0.0 0.0 0.00 0.00 0.00 89 1018.3
20260831100006 75 194 0.0 0.0 0.00 0.00 0.00 89 1018.3
20260831095506 75 194 0.0 0.0 0.00 0.00 0.00 89 1018.3
20260831095006 75 194 0.0 0.0 0.00 0.00 0.00 89 1018.3
20260831094505 75 194 0.0 0.0 0.00 0.00 0.00 89 1018.3
20260831094005 75 194 0.0 0.0 0.00 0.00 0.00 89 1018.3
20260831093505 75 194 0.0 0.0 0.00 0.00 0.00 88 1018.3
20260831093006 75 194 0.0 0.0 0.00 0.00 0.00 88 1018.3
20260831092506 76 194 0.0 0.0 0.00 0.00 0.00 88 1018.3
20260831092006 76 194 0.0 0.0 0.00 0.00 0.00 88 1018.3
20260831091505 76 194 0.0 0.0 0.00 0.00 0.00 88 1018.3
20260831091005 76 194 0.0 0.0 0.00 0.00 0.00 88 1018.3
20260831090505 76 194 0.0 0.0 0.00 0.00 0.00 88 1018.3
20260831090006 76 194 0.0 0.0 0.00 0.00 0.00 88 1018.3
20260831085505 76 194 0.0 0.0 0.00 0.00 0.00 88 1018.2
20260831085006 76 194 0.0 0.0 0.00 0.00 0.00 88 1018.2
20260831084505 76 194 0.0 0.0 0.00 0.00 0.00 88 1018.2
20260831084005 76 194 0.0 0.0 0.00 0.00 0.00 88 1018.2
20260831083505 76 194 0.0 0.0 0.00 0.00 0.00 88 1018.2
20260831083006 76 194 0.0 0.0 0.00 0.00 0.00 87 1018.2
20260831082505 76 194 0.0 0.0 0.00 0.00 0.00 87 1018.2
20260831082005 76 194 0.0 0.0 0.00 0.00 0.00 87 1018.2
20260831081506 76 194 0.0 2.0 0.00 0.00 0.00 87 1018.2
20260831081005 76 194 0.0 2.0 0.00 0.00 0.00 87 1018.3
20260831080505 76 194 0.0 3.0 0.00 0.00 0.00 87 1018.2
20260831080005 76 194 1.0 3.0 0.00 0.00 0.00 87 1018.2
20260831075505 76 194 0.0 0.0 0.00 0.00 0.00 87 1018.2
20260831075006 76 194 0.0 0.0 0.00 0.00 0.00 87 1018.2
20260831074505 76 194 0.0 0.0 0.00 0.00 0.00 87 1018.2
20260831074006 76 194 0.0 2.0 0.00 0.00 0.00 87 1018.2
20260831073505 76 194 1.0 2.0 0.00 0.00 0.00 87 1018.3
20260831073005 76 194 0.0 0.0 0.00 0.00 0.00 87 1018.3
20260831072505 76 194 0.0 0.0 0.00 0.00 0.00 87 1018.3
20260831072006 76 194 0.0 0.0 0.00 0.00 0.00 87 1018.3
20260831071505 76 194 0.0 0.0 0.00 0.00 0.00 86 1018.3
20260831071006 76 194 0.0 2.0 0.00 0.00 0.00 86 1018.3
20260831070505 76 194 0.0 2.0 0.00 0.00 0.00 86 1018.4
20260831070006 76 194 0.0 2.0 0.00 0.00 0.00 86 1018.4
20260831065505 76 194 0.0 0.0 0.00 0.00 0.00 86 1018.3
20260831065005 76 194 0.0 0.0 0.00 0.00 0.00 86 1018.4
20260831064506 76 194 0.0 0.0 0.00 0.00 0.00 86 1018.4
20260831064005 76 194 0.0 0.0 0.00 0.00 0.00 87 1018.5
20260831063505 76 194 0.0 0.0 0.00 0.00 0.00 87 1018.6
20260831063005 76 194 0.0 0.0 0.00 0.00 0.00 87 1018.5
20260831062505 76 194 0.0 0.0 0.00 0.00 0.00 87 1018.5
20260831062006 76 194 0.0 0.0 0.00 0.00 0.00 87 1018.5
20260831061505 76 194 0.0 0.0 0.00 0.00 0.00 87 1018.5
20260831061005 76 194 0.0 0.0 0.00 0.00 0.00 86 1018.6
20260831060505 76 194 0.0 0.0 0.00 0.00 0.00 87 1018.7
20260831060005 76 194 0.0 0.0 0.00 0.00 0.00 86 1018.7
20260831055506 76 194 0.0 0.0 0.00 0.00 0.00 86 1018.7
20260831055005 76 194 0.0 0.0 0.00 0.00 0.00 86 1018.8
20260831054505 77 194 0.0 0.0 0.00 0.00 0.00 86 1018.8
20260831054005 77 194 0.0 0.0 0.00 0.00 0.00 85 1018.8